User: anonymous   Login
Location: Unspecified
(0.0000°N, 0.0000°E)
Time: 16:55:10
(UTC+00:00)
Language:

USA 184 - Orbit

View from above orbital plane
View from above orbital plane
View from above satellite
View from above satellite

Ground track
Ground track

The orbit data is extracted from the following two-line orbital elements,

1 29249U 06027A   15145.39808846 0.00000621  00000-0  00000-0 0    05
2 29249  63.8287  18.1961 7136567 267.2161  16.8151  2.00652517    08
Epoch (UTC): 25 May 2015 09:33:14
Eccentricity: 0.7136567
inclination: 63.8287°
perigee height: 1225 km
apogee height: 39123 km
right ascension of ascending node: 18.1961°
argument of perigee: 267.2161°
revolutions per day: 2.00652517
mean anomaly at epoch: 16.8151°
orbit number at epoch: 0

The dashed part of the orbit path shows where the satellite is in the earth's shadow,  

DLR